TimeEST,TemperatureF,Dew PointF,Humidity,Sea Level PressureIn,VisibilityMPH,Wind Direction,Wind SpeedMPH,Gust SpeedMPH,PrecipitationIn,Events,Conditions,WindDirDegrees,DateUTC
12:15 AM,27.5,21.7,79,30.22,10.0,SW,5.8,-,N/A,,Clear,220,2012-12-12 05:15:00
12:35 AM,27.5,21.7,79,30.22,10.0,SSW,5.8,-,N/A,,Clear,210,2012-12-12 05:35:00
12:55 AM,27.1,21.4,79,30.23,10.0,SSW,5.8,-,N/A,,Clear,210,2012-12-12 05:55:00
1:15 AM,27.1,21.6,80,30.23,10.0,SSW,6.9,-,N/A,,Clear,210,2012-12-12 06:15:00
1:35 AM,27.5,21.6,78,30.23,10.0,SSW,4.6,-,N/A,,Clear,200,2012-12-12 06:35:00
1:55 AM,27.1,21.0,78,30.23,10.0,SSW,4.6,-,N/A,,Clear,210,2012-12-12 06:55:00
2:15 AM,26.4,20.7,79,30.24,10.0,SSW,4.6,-,N/A,,Clear,200,2012-12-12 07:15:00
2:55 AM,26.1,21.2,82,30.25,10.0,South,3.5,-,N/A,,Clear,190,2012-12-12 07:55:00
3:15 AM,25.7,21.0,82,30.26,10.0,South,3.5,-,N/A,,Clear,190,2012-12-12 08:15:00
3:35 AM,25.3,20.5,82,30.26,10.0,SSW,3.5,-,N/A,,Clear,210,2012-12-12 08:35:00
3:55 AM,25.7,21.0,82,30.26,10.0,SSW,3.5,-,N/A,,Clear,200,2012-12-12 08:55:00
4:15 AM,25.5,21.0,83,30.27,10.0,South,3.5,-,N/A,,Clear,190,2012-12-12 09:15:00
4:55 AM,25.3,21.0,84,30.27,10.0,Calm,Calm,-,N/A,,Clear,0,2012-12-12 09:55:00
5:15 AM,24.8,20.7,84,30.28,10.0,South,3.5,-,N/A,,Clear,170,2012-12-12 10:15:00
5:35 AM,24.6,20.7,85,30.28,10.0,South,3.5,-,N/A,,Clear,180,2012-12-12 10:35:00
5:55 AM,23.9,20.3,86,30.28,10.0,South,4.6,-,N/A,,Clear,170,2012-12-12 10:55:00
6:15 AM,24.3,20.3,85,30.29,10.0,South,5.8,-,N/A,,Clear,170,2012-12-12 11:15:00
6:55 AM,24.4,20.7,86,30.30,10.0,South,3.5,-,N/A,,Clear,170,2012-12-12 11:55:00
7:15 AM,24.3,20.3,85,30.31,10.0,SSE,4.6,-,N/A,,Clear,160,2012-12-12 12:15:00
7:35 AM,23.9,20.3,86,30.31,10.0,SSE,3.5,-,N/A,,Clear,160,2012-12-12 12:35:00
7:55 AM,24.3,20.3,85,30.32,10.0,SSE,4.6,-,N/A,,Clear,160,2012-12-12 12:55:00
8:15 AM,23.9,20.3,86,30.32,10.0,South,4.6,-,N/A,,Clear,170,2012-12-12 13:15:00
8:35 AM,25.0,21.0,85,30.33,7.0,SSE,3.5,-,N/A,,Clear,160,2012-12-12 13:35:00
8:55 AM,26.6,22.3,84,30.33,10.0,South,3.5,-,N/A,,Clear,170,2012-12-12 13:55:00
9:15 AM,28.2,23.0,81,30.34,10.0,South,4.6,-,N/A,,Clear,170,2012-12-12 14:15:00
9:35 AM,29.7,23.7,79,30.34,10.0,South,6.9,-,N/A,,Clear,190,2012-12-12 14:35:00
9:55 AM,30.9,23.9,75,30.35,10.0,South,5.8,-,N/A,,Clear,180,2012-12-12 14:55:00
10:15 AM,32.0,24.4,74,30.36,10.0,South,5.8,-,N/A,,Clear,180,2012-12-12 15:15:00
10:35 AM,33.3,24.1,69,30.36,10.0,South,5.8,-,N/A,,Clear,180,2012-12-12 15:35:00
10:55 AM,34.7,23.7,64,30.36,10.0,South,6.9,-,N/A,,Clear,180,2012-12-12 15:55:00
11:15 AM,36.0,23.7,61,30.36,10.0,South,6.9,-,N/A,,Clear,190,2012-12-12 16:15:00
11:55 AM,38.7,23.0,53,30.36,10.0,South,8.1,-,N/A,,Clear,190,2012-12-12 16:55:00
12:15 PM,39.6,23.7,53,30.35,10.0,SSW,5.8,-,N/A,,Clear,200,2012-12-12 17:15:00
12:35 PM,40.8,23.4,50,30.35,10.0,South,8.1,-,N/A,,Clear,170,2012-12-12 17:35:00
12:55 PM,41.0,23.0,49,30.35,10.0,South,8.1,-,N/A,,Clear,190,2012-12-12 17:55:00
1:15 PM,41.7,22.6,47,30.34,10.0,South,4.6,-,N/A,,Clear,180,2012-12-12 18:15:00
1:55 PM,42.8,23.5,47,30.33,10.0,SSW,4.6,-,N/A,,Clear,200,2012-12-12 18:55:00
2:15 PM,42.8,21.4,43,30.33,10.0,SSW,4.6,-,N/A,,Clear,200,2012-12-12 19:15:00
2:35 PM,43.0,22.6,45,30.32,10.0,South,6.9,-,N/A,,Clear,180,2012-12-12 19:35:00
2:55 PM,43.0,21.9,43,30.32,10.0,South,6.9,-,N/A,,Clear,180,2012-12-12 19:55:00
3:15 PM,43.2,22.1,43,30.32,10.0,SW,6.9,-,N/A,,Clear,220,2012-12-12 20:15:00
3:35 PM,42.8,22.5,45,30.32,10.0,SW,6.9,-,N/A,,Clear,220,2012-12-12 20:35:00
3:55 PM,42.8,22.1,44,30.31,10.0,SSW,5.8,-,N/A,,Clear,210,2012-12-12 20:55:00
4:15 PM,42.4,22.5,45,30.32,10.0,SSW,3.5,-,N/A,,Clear,200,2012-12-12 21:15:00
4:35 PM,41.9,23.4,48,30.33,10.0,South,3.5,-,N/A,,Clear,170,2012-12-12 21:35:00
4:55 PM,40.5,25.2,54,30.32,10.0,South,4.6,-,N/A,,Clear,180,2012-12-12 21:55:00
5:15 PM,38.8,23.9,55,30.32,10.0,South,4.6,-,N/A,,Clear,180,2012-12-12 22:15:00
5:35 PM,36.5,23.5,59,30.32,10.0,SE,4.6,-,N/A,,Clear,140,2012-12-12 22:35:00
5:55 PM,36.9,22.1,55,30.33,10.0,SSE,4.6,-,N/A,,Clear,150,2012-12-12 22:55:00
6:35 PM,35.4,23.5,62,30.33,10.0,SE,4.6,-,N/A,,Clear,140,2012-12-12 23:35:00
6:55 PM,34.5,24.1,66,30.34,10.0,SSE,4.6,-,N/A,,Clear,150,2012-12-12 23:55:00
7:15 PM,33.8,23.9,67,30.34,10.0,SSE,5.8,-,N/A,,Clear,160,2012-12-13 00:15:00
7:55 PM,32.9,23.9,69,30.34,10.0,SSE,5.8,-,N/A,,Clear,160,2012-12-13 00:55:00
8:15 PM,32.9,23.9,69,30.35,10.0,SSE,5.8,-,N/A,,Clear,150,2012-12-13 01:15:00
8:55 PM,32.0,23.9,72,30.36,10.0,SSE,4.6,-,N/A,,Clear,160,2012-12-13 01:55:00
9:15 PM,32.2,23.7,71,30.36,10.0,SSE,3.5,-,N/A,,Clear,160,2012-12-13 02:15:00
9:55 PM,31.5,23.5,73,30.36,10.0,SSE,3.5,-,N/A,,Clear,160,2012-12-13 02:55:00
10:15 PM,32.0,23.4,70,30.36,10.0,South,3.5,-,N/A,,Clear,170,2012-12-13 03:15:00
10:35 PM,31.6,24.3,74,30.36,10.0,SSE,3.5,-,N/A,,Clear,160,2012-12-13 03:35:00
10:55 PM,31.1,23.5,74,30.36,10.0,SSE,4.6,-,N/A,,Clear,150,2012-12-13 03:55:00
11:15 PM,30.6,23.2,74,30.37,10.0,SE,3.5,-,N/A,,Clear,140,2012-12-13 04:15:00
11:55 PM,30.0,23.0,75,30.36,10.0,SSE,3.5,-,N/A,,Clear,150,2012-12-13 04:55:00